Wind_Speed
19 30 26 21 22 25 30 31 31 30 28 26 25 25 24 24 24 23 23 22 21 21 20 18 17 15 15 15 14 14 14 13 12 13 15 17 18 18 16 17 19 20 20
30 27 11 14 17 20 26 30 30 29 27 27 27 28 27 25 25 25 24 24 24 23 22 20 20 19 18 17 16 15 16 15 15 16 17 19 19 20 20 19 20 21 22
20 35 31 21 17 19 23 25 27 28 28 28 30 31 29 27 26 26 26 26 25 24 23 22 21 21 19 19 18 17 17 16 17 18 20 21 21 21 22 22 22 23 23
21 25 22 28 17 10 19 27 27 27 29 31 31 29 28 26 24 25 26 26 26 25 25 24 23 23 22 21 21 19 18 18 19 20 22 23 22 23 22 23 23 23 25
14 19 23 14 20 13 20 31 24 28 29 31 31 29 28 28 28 28 28 27 27 27 26 26 25 23 23 23 22 20 20 21 22 22 23 23 24 23 23 24 24 25 27
9 16 21 16 10 22 26 27 31 38 34 31 30 30 30 30 31 29 28 27 29 28 27 26 26 25 23 24 24 24 24 23 23 23 23 23 24 23 24 25 26 26 28
15 16 18 22 16 18 25 39 35 30 30 33 33 31 31 32 32 31 30 28 27 27 27 27 27 25 26 27 26 26 26 24 24 24 24 24 25 24 25 25 27 28 29
10 14 15 19 22 19 20 26 33 37 35 40 36 33 32 34 33 32 31 29 28 27 28 28 27 26 27 27 27 27 26 24 23 27 26 25 25 26 26 26 27 29 30
10 14 14 16 19 19 21 19 28 32 36 35 35 38 36 34 35 33 32 31 30 28 30 29 28 27 26 31 30 34 31 30 24 26 26 26 26 27 26 26 29 30 33
16 11 13 17 19 22 22 27 27 38 36 38 36 33 37 41 36 36 35 33 31 30 31 32 32 32 35 35 34 29 24 24 28 28 27 27 26 26 26 28 29 32 35
20 19 18 14 15 21 25 27 27 30 39 43 37 36 35 35 41 37 37 35 34 31 31 32 33 36 35 42 39 28 24 25 31 28 28 26 26 26 27 28 31 33 36
28 26 23 23 22 19 21 25 30 31 35 47 45 39 37 41 44 39 40 38 40 41 35 33 37 40 43 47 44 26 21 25 29 27 26 25 26 26 28 31 33 34 35
29 32 29 25 27 26 25 24 25 30 33 43 48 48 42 39 40 35 41 47 48 45 49 53 49 49 54 45 36 20 19 26 28 25 25 25 26 27 29 32 33 34 34
22 26 35 34 29 30 28 28 28 28 31 36 40 43 46 46 49 43 45 47 50 52 50 56 55 49 46 38 31 21 22 26 26 26 26 25 26 28 30 32 32 31 31
17 17 17 21 23 27 29 29 29 30 29 33 37 41 45 50 51 53 53 56 53 62 61 54 49 42 41 35 25 23 24 23 26 26 25 25 26 28 30 30 29 30 32
13 11 11 13 15 17 21 24 27 28 28 28 32 35 39 43 47 52 54 51 57 45 49 48 51 49 36 31 24 25 23 23 25 24 24 26 27 26 27 27 28 32 35
15 17 19 19 19 19 19 20 24 28 30 30 30 30 33 34 37 41 45 44 43 45 49 47 42 36 31 27 26 25 24 24 24 24 23 25 24 24 24 27 31 35 39
21 23 26 30 33 27 26 27 25 25 27 29 29 29 26 28 28 27 31 35 39 42 45 41 36 31 28 23 25 23 25 22 22 22 22 23 23 23 26 29 34 39 41
25 27 31 34 37 36 35 32 30 28 26 27 29 27 25 28 27 29 33 36 43 43 39 34 30 24 24 24 25 25 23 20 22 21 20 21 22 25 29 33 37 41 44
31 35 37 39 42 41 41 39 38 33 29 26 26 25 23 26 28 27 28 29 32 31 30 26 24 26 29 26 26 25 21 21 20 18 21 21 24 28 32 36 40 44 46
34 37 41 43 45 46 43 42 36 32 30 30 27 24 25 27 25 29 29 27 28 30 25 24 27 29 28 30 24 21 21 18 16 20 21 23 26 31 34 39 42 44 46
51 46 47 48 49 47 46 44 32 29 32 31 29 25 24 27 28 28 28 29 28 28 28 33 33 33 30 23 23 21 17 14 20 21 21 25 29 32 36 39 41 44 43
54 55 52 43 40 36 37 36 32 31 35 33 32 28 28 31 32 33 34 33 33 31 29 30 33 30 25 25 23 19 14 18 20 21 23 27 30 32 36 40 40 39 36
50 46 42 44 40 40 45 41 41 37 37 36 36 33 37 35 33 35 38 38 33 33 37 37 36 28 27 26 21 16 18 20 20 22 25 27 30 33 37 36 34 34 32
42 43 45 45 43 44 42 38 36 37 36 38 36 39 33 40 41 38 36 39 35 43 43 36 28 29 29 24 18 17 20 20 22 24 25 28 31 34 33 32 31 31 31
46 42 41 35 35 37 39 39 39 36 34 37 33 33 36 35 43 41 40 45 45 42 33 32 33 32 28 22 18 20 21 21 22 24 27 29 32 32 31 31 30 30 29
Wind_Direction
214 199 207 224 229 216 213 212 215 217 218 224 224 227 228 227 226 224 224 226 227 225 223 221 224 223 226 231 237 244 252 257 263 269 273 275 277 278 275 276 281 284 285
234 219 226 226 237 212 214 213 215 218 220 224 227 227 226 227 227 227 227 225 227 227 226 226 226 226 226 230 239 243 253 260 265 269 272 274 277 279 278 276 277 281 285
241 234 270 259 223 215 209 214 220 221 221 224 227 230 231 230 230 230 231 230 229 230 230 230 230 231 233 236 238 241 247 255 263 272 275 277 278 279 280 280 280 281 285
226 239 260 246 261 256 227 218 220 225 227 228 230 233 234 232 233 234 232 233 233 230 230 231 231 233 236 239 241 244 252 260 264 269 275 277 276 277 278 281 282 285 287
247 247 265 266 247 264 255 250 229 228 231 234 234 234 235 234 232 231 232 234 237 236 234 235 235 236 242 246 248 251 256 259 264 268 272 276 279 280 281 280 285 287 289
282 261 265 259 267 254 244 241 244 264 246 238 239 237 234 235 235 235 234 236 238 239 241 241 243 245 246 252 254 256 257 259 264 269 272 274 275 277 279 282 284 286 291
264 275 264 268 275 281 255 241 254 248 244 252 241 233 232 235 234 234 234 234 239 243 247 246 248 252 254 259 258 259 262 266 271 271 272 272 275 274 275 278 283 288 292
268 259 252 249 256 272 263 247 241 244 232 230 234 237 231 233 234 235 237 238 238 242 244 245 249 254 259 262 261 261 261 265 267 273 270 271 272 274 274 276 281 285 289
273 263 260 258 252 258 244 257 244 236 232 228 228 237 233 233 235 235 235 235 236 238 242 242 246 249 262 264 267 271 278 267 269 267 269 270 271 272 275 280 283 287 291
304 303 275 263 259 254 257 252 251 236 228 231 225 225 238 246 239 235 233 232 233 237 240 241 244 248 256 260 258 258 262 270 270 267 268 267 269 272 276 281 286 291 294
291 293 287 287 278 263 258 255 254 245 240 238 236 228 235 241 242 236 233 233 235 236 242 244 249 255 263 262 250 248 255 261 261 261 262 265 270 274 280 285 289 293 295
295 283 270 267 273 276 269 261 256 250 242 242 243 248 240 248 242 234 230 227 232 235 233 245 253 257 254 254 246 236 247 250 255 256 261 265 271 279 286 290 293 295 296
285 289 287 271 262 263 270 269 265 258 251 243 248 252 246 246 255 235 233 239 243 244 245 267 265 266 254 245 247 247 246 253 255 259 264 270 276 281 286 290 293 296 297
292 282 278 285 278 265 262 264 263 263 260 256 252 250 248 244 245 243 248 248 249 256 261 247 260 261 251 241 240 241 241 249 256 260 265 271 277 284 289 291 293 295 299
298 291 288 284 285 279 273 262 261 262 263 266 259 253 253 250 247 249 249 251 252 256 256 251 264 270 249 241 241 237 238 246 256 260 266 272 280 287 288 291 297 300 303
302 318 322 322 314 300 286 276 265 262 262 265 266 264 256 253 252 250 248 248 252 264 268 253 263 257 241 239 234 234 237 245 253 259 268 277 282 286 290 294 297 300 303
304 308 313 316 318 318 314 302 284 273 269 269 269 268 262 258 259 256 252 250 251 255 262 258 247 236 231 228 234 229 238 244 253 261 269 279 282 287 292 297 302 306 308
301 303 303 305 309 314 317 302 301 295 281 273 272 272 267 258 261 255 248 240 247 248 247 241 233 225 233 226 226 232 238 245 255 265 275 279 284 290 296 301 305 307 308
296 298 302 306 306 308 308 314 301 293 290 280 272 265 253 259 260 254 248 248 243 240 235 228 228 238 228 233 229 233 240 249 259 267 273 277 285 293 299 303 302 305 311
288 290 292 294 299 303 304 305 305 291 286 281 272 256 253 245 246 247 249 247 239 235 228 231 232 233 227 226 228 233 238 249 262 270 273 279 288 298 300 303 308 311 314
282 283 289 294 300 298 297 298 301 294 285 276 272 260 251 244 244 241 240 235 229 227 241 247 239 233 226 227 226 232 242 253 264 267 275 286 296 298 304 311 313 314 314
289 287 288 286 291 293 293 294 291 284 288 270 263 262 253 246 249 247 243 245 239 234 238 228 225 226 227 224 228 236 245 252 261 267 279 291 296 303 311 315 315 313 315
291 291 291 288 286 285 283 280 286 279 278 279 269 255 251 245 241 245 243 247 246 237 235 246 241 232 226 225 231 238 241 254 262 273 283 292 301 310 314 314 314 316 314
286 286 288 281 279 281 286 285 273 275 276 281 268 259 255 239 243 236 240 241 232 245 243 245 229 225 221 225 232 233 245 254 266 276 287 300 308 311 313 315 315 314 311
284 280 276 279 279 279 277 273 268 264 268 269 279 258 260 250 232 240 241 231 248 241 236 227 223 219 222 226 227 237 249 260 271 283 296 302 308 314 313 311 308 309 309
282 274 274 275 275 270 263 261 265 259 259 265 277 263 258 259 236 232 242 242 235 231 224 218 218 220 223 221 225 241 250 263 277 288 299 306 310 311 308 304 303 305 306
Height
3088 3083 3091 3097 3101 3104 3107 3112 3115 3120 3125 3129 3133 3135 3138 3140 3143 3145 3147 3149 3151 3153 3153 3154 3155 3156 3157 3158 3159 3159 3160 3160 3160 3160 3160 3159 3159 3158 3159 3157 3155 3155 3155
3087 3087 3083 3093 3096 3101 3105 3108 3111 3116 3121 3124 3127 3129 3131 3135 3138 3141 3143 3144 3146 3148 3149 3150 3151 3152 3152 3153 3154 3155 3155 3155 3155 3155 3155 3155 3155 3153 3153 3153 3152 3150 3149
3085 3088 3086 3088 3094 3098 3102 3105 3108 3111 3115 3118 3120 3123 3127 3130 3133 3136 3138 3140 3142 3144 3145 3146 3147 3147 3148 3149 3149 3149 3150 3149 3150 3150 3151 3149 3150 3149 3147 3146 3146 3145 3144
3082 3085 3086 3082 3088 3092 3099 3101 3103 3106 3110 3111 3114 3119 3123 3126 3129 3131 3133 3136 3137 3139 3140 3141 3142 3143 3144 3144 3145 3145 3145 3145 3145 3145 3145 3145 3145 3144 3144 3141 3140 3139 3137
3079 3082 3082 3082 3080 3088 3094 3097 3099 3101 3104 3107 3110 3114 3117 3120 3122 3124 3127 3130 3132 3134 3135 3137 3137 3138 3139 3140 3140 3140 3142 3141 3140 3140 3140 3139 3138 3138 3137 3136 3134 3132 3131
3077 3080 3080 3079 3076 3081 3087 3090 3095 3098 3099 3101 3105 3108 3112 3114 3116 3119 3121 3124 3126 3128 3130 3132 3133 3135 3134 3135 3136 3135 3136 3136 3135 3134 3134 3133 3132 3131 3130 3129 3129 3128 3126
3074 3076 3076 3075 3076 3079 3082 3085 3087 3089 3093 3097 3098 3101 3104 3107 3110 3112 3114 3116 3120 3122 3125 3126 3128 3129 3130 3130 3130 3130 3129 3130 3129 3129 3128 3127 3126 3125 3124 3124 3122 3120 3119
3074 3074 3074 3074 3077 3077 3076 3076 3079 3082 3084 3085 3090 3094 3096 3098 3102 3106 3108 3111 3113 3116 3117 3119 3120 3121 3123 3123 3123 3123 3122 3121 3121 3121 3121 3120 3120 3119 3119 3118 3117 3115 3113
3074 3072 3069 3070 3070 3071 3072 3072 3074 3075 3077 3079 3083 3087 3089 3090 3095 3098 3100 3103 3105 3107 3109 3111 3112 3112 3113 3114 3115 3115 3113 3112 3113 3113 3114 3114 3114 3113 3112 3110 3109 3107 3104
3067 3066 3065 3065 3065 3066 3066 3067 3066 3066 3071 3074 3075 3077 3083 3086 3087 3089 3091 3094 3097 3099 3100 3102 3103 3103 3104 3104 3105 3104 3104 3105 3107 3106 3106 3107 3106 3106 3105 3104 3101 3099 3096
3064 3063 3063 3063 3063 3063 3062 3061 3060 3061 3063 3067 3070 3070 3072 3075 3079 3081 3084 3086 3089 3090 3091 3092 3094 3094 3094 3094 3093 3093 3094 3095 3098 3098 3097 3098 3099 3099 3098 3097 3095 3091 3087
3058 3057 3057 3057 3057 3057 3057 3056 3054 3054 3056 3059 3061 3063 3066 3067 3069 3071 3074 3076 3080 3081 3081 3082 3083 3083 3083 3082 3081 3081 3083 3087 3090 3090 3090 3090 3090 3090 3091 3090 3088 3084 3079
3050 3049 3049 3049 3049 3049 3048 3049 3048 3049 3050 3051 3053 3053 3055 3057 3057 3059 3064 3067 3067 3068 3070 3071 3070 3070 3070 3071 3072 3071 3073 3080 3083 3083 3083 3083 3082 3083 3083 3083 3078 3075 3072
3043 3041 3041 3041 3040 3040 3040 3040 3040 3041 3042 3042 3043 3043 3044 3047 3049 3052 3054 3056 3058 3059 3058 3058 3060 3060 3060 3062 3064 3064 3068 3072 3075 3077 3076 3076 3075 3075 3074 3073 3069 3066 3063
3039 3037 3036 3035 3034 3032 3031 3031 3032 3032 3031 3031 3032 3032 3034 3036 3037 3040 3042 3044 3047 3048 3044 3044 3048 3050 3052 3053 3055 3059 3062 3064 3068 3070 3069 3068 3066 3065 3065 3065 3060 3058 3053
3036 3034 3032 3030 3028 3027 3025 3024 3023 3024 3024 3023 3022 3022 3023 3023 3025 3027 3029 3034 3036 3030 3036 3036 3038 3041 3043 3044 3048 3053 3055 3059 3061 3061 3062 3062 3059 3055 3056 3055 3052 3050 3043
3033 3031 3029 3027 3026 3023 3021 3019 3017 3015 3015 3014 3014 3013 3012 3012 3013 3015 3018 3021 3025 3027 3030 3029 3031 3033 3033 3036 3041 3046 3049 3053 3053 3056 3054 3053 3050 3047 3047 3047 3045 3040 3036
3029 3027 3024 3022 3021 3019 3016 3014 3011 3009 3006 3005 3004 3003 3003 3004 3004 3006 3008 3012 3015 3016 3019 3021 3023 3026 3030 3032 3035 3037 3043 3046 3048 3047 3045 3045 3042 3042 3041 3037 3036 3033 3027
3023 3021 3018 3015 3013 3012 3010 3008 3006 3003 3000 2998 2996 2995 2994 2996 2997 2999 3001 3003 3005 3007 3011 3012 3016 3020 3023 3026 3029 3032 3037 3038 3040 3039 3037 3036 3036 3035 3034 3028 3028 3023 3015
3015 3012 3010 3008 3005 3003 3001 2998 2997 2995 2994 2990 2988 2987 2988 2989 2990 2992 2994 2996 2999 3002 3006 3009 3011 3014 3016 3018 3022 3028 3028 3030 3031 3032 3031 3029 3028 3028 3025 3021 3016 3013 3004
3007 3005 3001 2998 2997 2993 2992 2990 2987 2986 2984 2983 2981 2980 2981 2982 2983 2985 2988 2991 2994 2996 2999 3003 3007 3008 3009 3014 3016 3018 3021 3022 3023 3024 3024 3022 3021 3019 3016 3009 3006 3001 2992
2996 2995 2991 2989 2987 2983 2980 2980 2978 2978 2976 2972 2972 2972 2974 2975 2977 2979 2982 2984 2987 2989 2992 2994 2996 3000 3004 3006 3008 3011 3013 3014 3017 3018 3017 3015 3014 3011 3005 2999 2995 2991 2984
2980 2979 2978 2975 2975 2973 2969 2967 2969 2967 2966 2964 2963 2964 2965 2967 2969 2971 2973 2975 2978 2980 2983 2986 2988 2991 2995 2999 3001 3003 3005 3009 3010 3010 3009 3007 3004 2999 2995 2991 2986 2981 2976
2966 2965 2964 2961 2960 2960 2957 2955 2956 2955 2955 2954 2954 2953 2953 2956 2959 2962 2964 2966 2968 2972 2974 2976 2979 2984 2988 2992 2994 2996 3000 3002 3002 3002 3000 2996 2993 2990 2986 2981 2978 2974 2969
2950 2948 2947 2945 2945 2947 2943 2942 2942 2942 2943 2943 2943 2942 2943 2944 2948 2952 2954 2956 2959 2962 2964 2969 2975 2978 2982 2984 2986 2990 2993 2994 2994 2992 2990 2988 2984 2980 2977 2974 2971 2967 2962
2932 2931 2931 2929 2929 2929 2928 2928 2929 2930 2931 2932 2932 2932 2932 2933 2937 2941 2944 2946 2950 2954 2960 2963 2967 2970 2973 2976 2979 2984 2985 2986 2985 2983 2981 2978 2976 2973 2970 2967 2963 2959 2955